Погода в Кулях

Россия / Республика Дагестан     42°01′07″N   47°14′37″E
темп.,
°C
ветер,
м/с
пор.,
м/с
влажн.,
%
обл.,
%
осадки,
мм/ч
давл.,
гПа
погр.,
м
26 июня, вс
вс2600:00+8зюз4591100 4.2 1015181
03:00+10юз3383100 5.7 101249
06:00+12ю2278100 0.4 101068
09:00+15юв2364100 0.6 1008687
12:00+18юв31048100 1.0 10062348
15:00+17в3559100 3.4 10071167
18:00+14в1282100 3.1 100880
21:00+10юз3283100 5.7 101137
27 июня, пн
пн2700:00+10ююз327698 0.6 101119
03:00+9юз32720 0.6 101214
06:00+13ююз11680 0.0 101139
09:00+17всв22620 0.0 1010743
12:00+18всв33681 0.9 1010972
15:00+16всв33784 4.4 1011628
18:00+14ссв229377 3.3 1012263
21:00+11зюз2185100 4.7 101412
28 июня, вт
вт2800:00+11юз327376 0.1 101320
03:00+9юз33701 0.1 101320
06:00+13зюз22720 0.0 101145
09:00+17ссв22600 0.0 1010859
12:00+17ссв32691 1.3 1010781
15:00+16ссв328037 3.2 1012474
18:00+11ссв339682 0.9 1015252
21:00+10зсз22933 0.9 101629
29 июня, ср
ср2900:00+8з118922 0.0 101713
03:00+8юз008923 0.0 101728
06:00+10в11867 0.0 1017127
09:00+12св328876 0.3 1016509
12:00+12св329282 1.6 1017432
15:00+11св229283 3.3 1017325
18:00+11всв119151 1.1 1017167
21:00+8юз229149 2.6 101817
30 июня, чт
чт3000:00+8зюз11860 0.3 101810
03:00+7юз11840 0.3 101710
06:00+10з01820 0.0 1017104
09:00+14св227655 0.1 1014731
12:00+15ссв318231 2.8 1014575
15:00+13ссв219176 5.3 1014407
18:00+11ссв119576 1.0 1016102
21:00+9с229884 1.4 1018183